Погода Нижний Тагил

Хотите узнать прогноз погоды Нижний Тагил? Тогда Вам сюда: Погода Нижний Тагил

Поиск расширенной информации на нашем сайте:

Полезная информация:

Новости сайта



02.01.2020
Опубликован Долгосрочный прогноз погоды по городам России и ближнего зарубежья на январь 2020 года.
Карты: Прогноз на январь и февраль 2020 года, Сравнение прогнозируемой аномалии приземной температуры воздуха на январь 2020 года по разным моделям.




Погода Нижний Тагил - сегодня

Время (UTC), дата Ветер
(°,м/с) 
Видим.   Явления Облачность Т
(°С)
Тd
(°С)
f(%) Тe
(°С)
Pmin
(гПа)
dP
(гПа)
Po
(мм)
O2
(г/м3)
Тmin Tmax R s Состояние
почвы
06 05.04.20 210 (ЮЗ) 20000 м  {туман}  9/3 600 м верхняя 
[Sc|Ci sp]
+3.6 +1.8 88 +3  1009.8  -0.9  734  291           
09 05.04.20 260 (З) 20000 м    10/1 600 м верхняя 
[Cu hum|Ci sp]
+8.2 +2.9 69 +8  1008.1  -1.1  733  286           
12 05.04.20 270 (З) 20000 м    10/0 средняя, верхняя 
[Ac trans|Ci sp]
+5.8 +1.2 72 +4  1008.6  0.3  733  289           
15 05.04.20 270 (З) 20000 м    10/3 600 м средняя, верхняя 
[Sc|Ac trans|Ci sp]
+3.6 +1.1 84 +2  1009.4  0.4  733  291    +8.7       
18 05.04.20 260 (З) 20000 м    10/4 600 м средняя 
[Sc|Ac trans]
+2.1 -0.3 84 +1  1009.7  0.2  733  293           
21 05.04.20 300 (СЗ) 20000 м    8/0 средняя, верхняя 
[Ac trans|Ci fib]
+0.8 -1.4 85 1009.4  -0.5  733  295           
00 06.04.20 310 (СЗ) 20000 м    6/0 средняя, верхняя 
[Ac trans|Ci fib]
-0.8 -2.4 89 -2  1009.5  733  296           
03 06.04.20 330 (СЗ) 20000 м    8/1 600 м средняя, верхняя 
[Cu hum|Ac trans|Ci fib]
-0.6 -4.1 77 -2  1009.8  0.3  733  296  -2.4        замёрзшая 
06 06.04.20 350 (С) 20000 м  слаб. ливневой снег  9/9 600 м кучево-дожд. 
[Cb cap]
+1.4 -2.1 77 -1  1009.6  733  294           
09 06.04.20 030 (СВ) 6-10{10}  20000 м  слаб. крупа{ливн. осадки}  9/8 600 м кучево-дожд., верхняя 
[Cb cap|Ci fib]
+1.4 -4.5 65 -2  1009.9  0.3  733  294           
12 06.04.20 360 (С) 7-10{10}  20000 м  в посл. час ливневой снег  9/6 600 м кучево-дожд., верхняя 
[Cb cap|Ci fib]
+3.8 -10 36 +1  1010.3  0.6  734  293           
15 06.04.20 020 (С) 4{10}  20000 м    8/1 1000 м средняя, верхняя 
[Sc|Ac trans|Ci fib]
+1.2 -12.2 36 -1  1011.8  1.1  735  296    +4.1  0.0     
18 06.04.20 350 (С) 20000 м    6/0 верхняя 
[Ci fib]
-2 -12.8 43 -3  1012.7  0.5  735  299           
21 06.04.20 360 (С) 20000 м    4/0 верхняя 
[Ci fib]
-3.3 -12.5 49 -5  1013.7  0.9  736  301           
00 07.04.20 350 (С) 20000 м    3/0 верхняя 
[Ci fib]
-4 -10.6 60 -6  1014.4  0.6  736  302           
03 07.04.20 340 (С) 6-11{11}  20000 м    1/0 средняя 
[Ac trans]
-3.2 -11.1 54 -7  1014.4  0.1  736  301  -4.4        замёрзшая 
06 07.04.20 340 (С) 6-10{11}  20000 м    3/3 600 м 
[Cu Sc]
-0.3 -12.1 41 -4  1012.1  -1.9  735  297           
09 07.04.20 320 (СЗ) 6-11{14}  10 км  слаб. крупа{ливн. осадки}  9/9 600 м кучево-дожд. 
[Cb cap]
-1.8 -9.6 55 -6  1010.1  -2.2  733  298           
12 07.04.20 320 (СЗ) 6-11{15}  20000 м  в посл. час крупа{ливн. осадки}  5/5 600 м кучево-дожд. 
[Cb cap]
-0.5 -11.1 45 -4  1008  -1.8  732  296           
15 07.04.20 320 (СЗ) 6-10{15}  20000 м  в посл. час ливневой снег  8/8 300 м кучево-дожд. 
[Cb cap]
-2.6 -9.7 58 -7  1008.3  732  299    +1.2  0.0     
18 07.04.20 310 (СЗ) 5-10{15}  20000 м  {ливн. осадки}  3/0 средняя 
[Ac trans]
-4.5 -11.9 56 -8  1007.7  -0.7  731  301           
21 07.04.20 310 (СЗ) 5{13}  20000 м    1/0 верхняя 
[Ci fib]
-6.4 -13.7 56 -10  1007  -1  731  303           
00 08.04.20 290 (З) 5{12}  20000 м    1/0 верхняя 
[Ci fib]
-7.1 -12.6 65 -11  1006.9  -0.1  731  303           
03 08.04.20 280 (З) 5-10{10}  20000 м    1/0 средняя 
[Ac trans]
-6.7 -12.5 63 -11  1006.5  -0.5  730  303  -7.8        замёрзшая 
06 08.04.20 290 (З) 7-12{13}  20000 м    8/0 средняя, верхняя 
[Ac trans|Ci fib]
-2.7 -14.4 40 -7  1005.2  -0.7  730  298           
Время (UTC), дата Ветер
(°,м/с) 
Видим.   Явления Облачность Т
(°С)
Тd
(°С)
f(%) Тe
(°С)
Pmin
(гПа)
dP
(гПа)
Po
(мм)
O2
(г/м3)
Тmin Tmax R s Состояние
почвы

Для получения пояснительной информации подведите курсор к названию столбца.

ПОГОДА Нижний Тагил - архив

Всё, что Вы хотите узнать о погоде Нижний Тагил - удобно и подробно!

Выберите нужную дату (начиная с 1 января 2019* года) и нажмите кнопку "Найти".
Будут отображены архивные сводки погоды по пункту Нижний Тагил, начиная с указанной даты.


Отображать данные в формате CSV (для использования в таблицах Excel)


Внимание! Наш архив погоды предназначен исключительно для личного некоммерческого использования в познавательных целях. Если Вам необходимы официальные справки о состоянии погоды (для производственных, юридических, коммерческих и т.п. целей), обращайтесь в органы Росгидромета.

*Примечание: данная дата относится к архиву по метеостанциям СССР (Россия, СНГ, Балтия).
Архив по метеостанциям Зарубежной Европы и Азии (кроме Китая) хранится 10 дней, по другим регионам земного шара (Китай, Африка, Америка, Австралия, Океания) - 1 день.

Нижний Тагил - район местоположения метеостанции


Название, широта, долгота, высота метеостанции:
Нижний Тагил 57.9°ш. 60.1°д. 260 м над ур. моря [Российская Федерация]

Дополнительная информация

В oтличие oт бoльшинства пoгoдных сайтoв мы публикуем пoдрoбную метеoинфoрмацию в детальнoм прoфессиoнальнoм фoрмате.

Характеристики температуры и влажнoсти вoздуха измеряются на высoте 2 м в тени вдали oт зданий и деревьев.
Скoрoсть ветра измеряется на высoте 10 м (на урoвне рoста челoвека скoрoсть ветра ниже в 1.5-2 раза). Если метеoстанция нахoдится в гoрoде или в лесу, тo скoрoсть ветра занижена на 2-4 м/с пo сравнению с oткрытым местoм. Скoрoсть ветра над акватoриями крупных рек и oзёр, а также на вершинах хoлмoв на 2-5 м/с выше, чем в oбычных услoвиях.
Атмoсфернoе давление в разных тoчках местнoсти мoжет значительнo oтличаться oт давления на метеoстанции, в зависимoсти oт услoвий рельефа (при пoдъёме на 10 м давление пoнижается примернo на 1 мм рт.ст.).